View from above orbital plane
|
View from above satellite
|
Ground track
|
The orbit data is extracted from the following two-line orbital elements,
1 43803U 18099AX 21017.14765639 .00000845 00000-0 80921-4 0 9998
2 43803 97.6819 90.8999 0014930 191.0021 169.0876 14.95699462115879
Epoch (UTC): | 17 January 2021 03:32:37 |
Eccentricity: | 0.0014930 |
inclination: | 97.6819° |
perigee height: | 570 km |
apogee height: | 590 km |
right ascension of ascending node: | 90.8999° |
argument of perigee: | 191.0021° |
revolutions per day: | 14.95699462 |
mean anomaly at epoch: | 169.0876° |
orbit number at epoch: | 11587 |
The dashed part of the orbit path shows where the satellite is in the earth's shadow,
|
|